Simultaneous Nadir Overpasses (SNOs) Predictions

Prediction of SNOs between METOP-A and NOAA-19 Satellite Orbit:

Table of predicted SNOs for the next 14.0 days since TLE Epoch: 7/6/2013
Index Date (METOP-A) Time (METOP-A) Lat,Lon (METOP-A) SZA (METOP-A ) Date (NOAA-19) Time (NOAA-19) Lat,Lon (NOAA-19) SZA (NOAA-19 ) Distance(km) Time Diff (sec)
1 07/08/2013 15:34:00 74.12, -58.79 51.76 07/08/2013 15:32:53 74.14, -61.70 51.92 88.54 67
2 07/08/2013 16:24:55 -73.49, 107.02 128.82 07/08/2013 16:23:46 -73.50, 107.12 128.79 3.41 69
3 07/08/2013 17:15:34 73.51, -85.60 51.21 07/08/2013 17:14:44 73.48, -85.59 51.20 2.79 50
4 07/08/2013 18:06:17 -73.47, 81.64 128.82 07/08/2013 18:05:50 -73.47, 81.65 128.81 0.84 27
5 07/08/2013 18:56:57 73.44,-111.09 51.16 07/08/2013 18:56:48 73.46,-111.06 51.18 2.41 9
6 07/08/2013 19:47:39 -73.45, 56.25 128.83 07/08/2013 19:47:54 -73.45, 56.19 128.83 1.96 15
7 07/08/2013 20:38:19 73.42,-136.47 51.15 07/08/2013 20:38:52 73.44,-136.52 51.16 2.10 33
8 07/08/2013 21:29:02 -73.38, 30.76 128.88 07/08/2013 21:29:57 -73.38, 30.85 128.90 2.76 55
9 07/08/2013 22:19:42 73.35,-161.97 51.10 07/08/2013 22:20:55 73.36,-161.87 51.09 3.31 73
10 07/18/2013 17:08:30 74.07, -82.53 53.21 07/18/2013 17:07:22 74.06, -85.06 53.34 77.12 68
11 07/18/2013 17:59:23 -73.54, 83.54 127.25 07/18/2013 17:58:18 -73.53, 83.47 127.25 2.68 65
12 07/18/2013 18:50:03 73.50,-109.22 52.72 07/18/2013 18:49:15 73.50,-109.20 52.73 0.55 48
13 07/18/2013 19:40:46 -73.48, 58.04 127.30 07/18/2013 19:40:21 -73.46, 58.12 127.31 3.09 25
14 07/18/2013 20:31:25 73.49,-134.60 52.72 07/18/2013 20:31:19 73.48,-134.67 52.72 2.23 6
15 07/18/2013 21:22:08 -73.46, 32.66 127.30 07/18/2013 21:22:25 -73.44, 32.66 127.33 2.46 17
16 07/18/2013 22:12:48 73.42,-160.09 52.67 07/18/2013 22:13:22 73.41,-160.01 52.65 2.84 34
17 07/18/2013 23:03:31 -73.39, 7.17 127.35 07/18/2013 23:04:29 -73.41, 7.19 127.34 2.68 58
18 07/18/2013 23:54:12 73.30, 174.30 52.58 07/18/2013 23:55:25 73.33, 174.64 52.58 11.46 73




NCC Satellite Simultaneous Nadir Overpasses (SN
